Weather History for Bentonville, AR

Change the Weather History Date:

Sunday, December 23, 2012

  Actual Average Record
Temperature  
Mean Temperature 51 °F -  
Max Temperature 60 °F 44 °F 68 °F (1964)
Min Temperature 39 °F 23 °F -14 °F (1989)
Degree Days  
Heating Degree Days 14    
Growing Degree Days 1 (Base 50)    
Moisture  
Dew Point 40 °F    
Average Humidity 64    
Maximum Humidity 81    
Minimum Humidity 50    
Precipitation  
Precipitation 0.00 in - - ()
Sea Level Pressure  
Sea Level Pressure 29.87 in    
Wind  
Wind Speed 7 mph (SW)    
Max Wind Speed 13 mph    
Max Gust Speed -    
Visibility 10 miles    
Events      
Averages and records for this station are not official NWS values.
T = Trace of Precipitation, MM = Missing Value Source: NWS Daily Summary

Daily Weather History Graph

Daily Weather History Graph

Search for Another Location

Airport:

Trip Planner

Search our weather history database for the weather conditions in past years. The results will help you decide how hot, cold, wet, or windy it might be!

Date:

Astronomy

Dec. 23, 2012 Rise Set
Actual Time 7:25 AM CST 5:06 PM CST
Civil Twilight 6:57 AM CST 5:35 PM CST
Nautical Twilight 6:24 AM CST 6:07 PM CST
Astronomical Twilight 5:53 AM CST 6:39 PM CST
Moon 1:54 PM CST 3:12 AM CST
Length of Visible Light 10h 38m
Length of Day
9h 41m
Waxing Gibbous, 82% of the Moon is Illuminated
Dec 23
Waxing Gibbous
Dec 28
Full
Jan 4
Last Quarter
Jan 11
New
Jan 18
First Quarter

Hourly Weather History & Observations

Time (CST) Temp. Windchill Dew Point Humidity Pressure Visibility Wind Dir Wind Speed Gust Speed Precip Events Conditions
12:15 AM 48.2 °F - 30.2 °F 50% 29.97 in 10.0 mi South 9.2 mph - N/A   Clear
12:35 AM 48.2 °F - 30.2 °F 50% 29.97 in 10.0 mi South 6.9 mph - N/A   Clear
12:55 AM 48.2 °F - 30.2 °F 50% 29.95 in 10.0 mi South 6.9 mph - N/A   Clear
1:15 AM 48.2 °F - 32.0 °F 54% 29.95 in 10.0 mi South 9.2 mph - N/A   Clear
1:55 AM 48.2 °F - 33.8 °F 58% 29.94 in 10.0 mi South 6.9 mph - N/A   Clear
2:15 AM 48.2 °F - 33.8 °F 58% 29.94 in 10.0 mi South 6.9 mph - N/A   Clear
2:55 AM 48.2 °F - 35.6 °F 62% 29.93 in 10.0 mi South 9.2 mph - N/A   Clear
3:35 AM 48.2 °F - 35.6 °F 62% 29.92 in 10.0 mi South 8.1 mph - N/A   Clear
3:55 AM 48.2 °F - 35.6 °F 62% 29.92 in 10.0 mi South 9.2 mph - N/A   Clear
4:15 AM 48.2 °F - 37.4 °F 66% 29.92 in 10.0 mi South 9.2 mph - N/A   Clear
4:35 AM 48.2 °F - 37.4 °F 66% 29.91 in 10.0 mi South 6.9 mph - N/A   Clear
4:55 AM 46.4 °F 42.9 °F 37.4 °F 71% 29.91 in 10.0 mi South 6.9 mph - N/A   Clear
5:15 AM 46.4 °F 42.9 °F 37.4 °F 71% 29.91 in 10.0 mi South 6.9 mph - N/A   Clear
5:35 AM 46.4 °F 42.9 °F 37.4 °F 71% 29.91 in 10.0 mi South 6.9 mph - N/A   Clear
5:55 AM 46.4 °F 42.9 °F 39.2 °F 76% 29.91 in 10.0 mi South 6.9 mph - N/A   Clear
6:15 AM 46.4 °F 43.5 °F 39.2 °F 76% 29.91 in 10.0 mi South 5.8 mph - N/A   Clear
6:55 AM 46.4 °F 42.9 °F 39.2 °F 76% 29.91 in 10.0 mi South 6.9 mph - N/A   Clear
7:15 AM 46.4 °F 42.9 °F 39.2 °F 76% 29.91 in 10.0 mi South 6.9 mph - N/A   Clear
7:55 AM 44.6 °F 41.4 °F 39.2 °F 81% 29.91 in 10.0 mi South 5.8 mph - N/A   Clear
8:15 AM 46.4 °F 43.5 °F 39.2 °F 76% 29.91 in 10.0 mi South 5.8 mph - N/A   Clear
8:55 AM 46.4 °F 44.3 °F 41.0 °F 81% 29.91 in 10.0 mi South 4.6 mph - N/A   Clear
9:15 AM 51.8 °F - 42.8 °F 71% 29.91 in 10.0 mi South 6.9 mph - N/A   Clear
9:35 AM 53.6 °F - 44.6 °F 72% 29.91 in 10.0 mi South 9.2 mph - N/A   Clear
10:15 AM 55.4 °F - 46.4 °F 72% 29.92 in 10.0 mi SSW 10.4 mph - N/A   Clear
10:35 AM 57.2 °F - 46.4 °F 67% 29.91 in 10.0 mi WSW 10.4 mph - N/A   Scattered Clouds
10:55 AM 57.2 °F - 44.6 °F 63% 29.91 in 10.0 mi SW 12.7 mph - N/A   Scattered Clouds
11:15 AM 57.2 °F - 46.4 °F 67% 29.89 in 10.0 mi SW 12.7 mph - N/A   Partly Cloudy
11:35 AM 59.0 °F - 46.4 °F 63% 29.87 in 10.0 mi West 10.4 mph - N/A   Mostly Cloudy
11:55 AM 57.2 °F - 44.6 °F 63% 29.87 in 10.0 mi WSW 10.4 mph - N/A   Mostly Cloudy
12:15 PM 59.0 °F - 44.6 °F 59% 29.86 in 10.0 mi SW 9.2 mph - N/A   Mostly Cloudy
12:35 PM 60.8 °F - 44.6 °F 55% 29.83 in 10.0 mi SSW 6.9 mph - N/A   Scattered Clouds
12:55 PM 60.8 °F - 44.6 °F 55% 29.83 in 7.0 mi SW 9.2 mph - N/A   Mostly Cloudy
1:15 PM 59.0 °F - 44.6 °F 59% 29.83 in 10.0 mi SW 8.1 mph - N/A   Scattered Clouds
1:35 PM 60.8 °F - 44.6 °F 55% 29.82 in 10.0 mi SW 8.1 mph - N/A   Scattered Clouds
1:55 PM 60.8 °F - 44.6 °F 55% 29.81 in 10.0 mi SW 9.2 mph - N/A   Mostly Cloudy
2:15 PM 60.8 °F - 44.6 °F 55% 29.80 in 10.0 mi SW 9.2 mph - N/A   Scattered Clouds
2:35 PM 60.8 °F - 42.8 °F 52% 29.80 in 10.0 mi SW 8.1 mph - N/A   Clear
2:55 PM 60.8 °F - 44.6 °F 55% 29.80 in 10.0 mi SW 8.1 mph - N/A   Clear
3:35 PM 60.8 °F - 42.8 °F 52% 29.80 in 10.0 mi SW 5.8 mph - N/A   Partly Cloudy
3:55 PM 60.8 °F - 42.8 °F 52% 29.80 in 10.0 mi SW 5.8 mph - N/A   Clear
4:15 PM 60.8 °F - 42.8 °F 52% 29.80 in 10.0 mi Calm Calm - N/A   Partly Cloudy
4:35 PM 59.0 °F - 42.8 °F 55% 29.80 in 10.0 mi West 4.6 mph - N/A   Partly Cloudy
4:55 PM 57.2 °F - 42.8 °F 59% 29.81 in 10.0 mi WNW 3.5 mph - N/A   Partly Cloudy
5:15 PM 53.6 °F - 41.0 °F 62% 29.81 in 10.0 mi Calm Calm - N/A   Scattered Clouds
5:35 PM 51.8 °F - 42.8 °F 71% 29.81 in 10.0 mi Calm Calm - N/A   Mostly Cloudy
5:55 PM 51.8 °F - 41.0 °F 67% 29.82 in 10.0 mi Calm Calm - N/A   Overcast
6:15 PM 51.8 °F - 42.8 °F 71% 29.81 in 10.0 mi Calm Calm - N/A   Overcast
6:35 PM 51.8 °F - 42.8 °F 71% 29.82 in 10.0 mi WNW 3.5 mph - N/A   Overcast
6:55 PM 53.6 °F - 42.8 °F 67% 29.82 in 10.0 mi NNW 3.5 mph - N/A   Overcast
7:15 PM 53.6 °F - 42.8 °F 67% 29.82 in 10.0 mi NNW 4.6 mph - N/A   Mostly Cloudy
7:35 PM 53.6 °F - 42.8 °F 67% 29.82 in 10.0 mi NNW 4.6 mph - N/A   Mostly Cloudy
7:55 PM 51.8 °F - 42.8 °F 71% 29.81 in 10.0 mi NNW 5.8 mph - N/A   Mostly Cloudy
8:15 PM 51.8 °F - 42.8 °F 71% 29.82 in 10.0 mi North 9.2 mph - N/A   Scattered Clouds
8:55 PM 50.0 °F - 41.0 °F 71% 29.83 in 10.0 mi North 9.2 mph - N/A   Overcast
9:35 PM 48.2 °F - 39.2 °F 71% 29.83 in 10.0 mi North 8.1 mph - N/A   Mostly Cloudy
9:55 PM 46.4 °F 41.9 °F 37.4 °F 71% 29.85 in 10.0 mi North 9.2 mph - N/A   Mostly Cloudy
10:15 PM 46.4 °F 42.4 °F 35.6 °F 66% 29.85 in 10.0 mi NNW 8.1 mph - N/A   Scattered Clouds
10:35 PM 44.6 °F 40.2 °F 33.8 °F 66% 29.86 in 10.0 mi North 8.1 mph - N/A   Partly Cloudy
11:15 PM 42.8 °F 38.6 °F 32.0 °F 66% 29.85 in 10.0 mi NNW 6.9 mph - N/A   Clear
11:55 PM 39.2 °F 33.6 °F 30.2 °F 70% 29.85 in 10.0 mi North 8.1 mph - N/A   Clear